Hourly Data Report for October 22, 2013

All times are specified in Local Standard Time (LST). Add 1 hour to adjust for Daylight Saving Time where and when it is observed.

PETAWAWA AWOS 2
ONTARIO

45°57'00.000" N
77°19'00.000" W
130.10 m
6106396
71625
YWA

Download Data

Hourly Data (October 2013)
Hourly Data Report for October 22, 2013
Temp Definition
°C
Dew Point Temp Definition
°C
Rel Hum Definition
%
Wind Dir Definition
10's deg

Wind Spd Definition
km/h
Visibility Definition
km
Stn Press Definition
kPa
Hmdx Definition


Wind Chill Definition


Weather Definition


TIME
00:00 8.4 8.4 100 15 4 11.3 98.96     Rain
01:00 8.5 8.1 97 14 6 15.0 98.90      
02:00 8.2 7.8 97 15 6 15.0 98.90      
03:00 7.9 7.4 97 21 6 15.0 98.85      
04:00 6.2 5.1 93 20 6 15.0 98.80     Rain
05:00 5.9 4.9 93 21 6 15.0 98.77      
06:00 5.5 4.2 91 22 9 15.0 98.77      
07:00 5.3 2.8 84 22 17 15.0 98.85      
08:00 5.1 2.4 83 24 9 15.0 98.89      
09:00 4.1 1.0 80 25 15 15.0 98.96     Rain
10:00 5.5 0.8 72 23 19 15.0 98.96      
11:00 6.0 -1.4 59 25 13 15.0 98.96      
12:00 6.2 1.3 71 25 9 15.0 98.94     Rain
13:00 6.0 0.7 69 28 17 15.0 98.92     Rain
14:00 4.3 2.3 87 30 9 15.0 98.93     Rain
15:00 4.7 3.2 90 26 7 15.0 98.95     Rain
16:00 4.4 2.7 89 24 7 15.0 98.95     Rain
17:00 4.1 2.7 91 24 7 15.0 98.95     Rain
18:00 3.1 2.5 96 20 4 15.0 98.97      
19:00 2.6 2.2 97   0 15.0 98.96      
20:00 1.6 1.2 97 23 6 15.0 98.96      
21:00 2.1 1.2 94 21 7 15.0 98.99      
22:00 2.5 1.6 94 26 6 15.0 99.03      
23:00 2.2 1.2 93 25 4 15.0 99.05      

Notes on Data Quality.

Legend

  • E = Estimated
  • M = Missing
  • NA = Not Available
  • ‡ = Partner data that is not subject to review by the National Climate Archives
Date modified: